Location: Recife
(8.0585°S, 34.8848°W)
Time: 10:00:13
(UTC-03:00)

Explorer 7 - Pass Details

Date: 22 April 2026
Orbit: 427 x 536 km, 50.2° (Epoch: 14 May)

Event Time Altitude Azimuth Distance (km) Brightness Sun altitude
Rises 10:26:50 0° 238° (WSW) 2,498 10.0 66.0°
Reaches altitude 10° 10:29:14 10° 252° (WSW) 1,640 9.2 66.3°
Maximum altitude 10:32:16 24° 307° (NW) 1,049 8.6 66.7°
Drops below altitude 10° 10:35:23 10° 2° (N) 1,685 9.8 67.0°
Sets 10:37:54 0° 16° (NNE) 2,585 10.6 67.3°
